sat.trackr.live / text

‹ back to catalog

BSAT-3B

NORAD 37207 · 2010-056B

PAYLOAD ACTIVE UNKNOWN

§ Identity

Operator
Country
JPN
Launch date
2010-10-28
Launch site
FRGUI
Launch vehicle
Mass (kg)
RCS (m²)
10.00

Purposes: comms

External: N2YO · Heavens-Above · Gunter

§ Orbital elements

Epoch: 2026-09-20T00:20:08.946816Z

Period
1,436.09 min
Inclination
0.0473°
Eccentricity
0.0004192
Mean motion
1.00272216 rev/d
Perigee alt
35,768.8 km
Apogee alt
35,804.1 km
Semi-major
42,164.6 km
B*
0.0000e+0
RAAN
243.4206°
Arg perigee
322.0192°
Mean anomaly
268.3656°
Rev number
5,305

§ Raw data

BSAT-3B1 37207U 10056B   26263.01399244 -.00000354  00000+0  00000+0 0  99932 37207   0.0473 243.4206 0004192 322.0192 268.3656  1.00272216 53051

JSON: /api/v1/satellites/37207 · /tle

For live sub-satellite position, see the globe view (requires WebGL).

§ Visibility from observer

Set your observer location to see the next 7 days of passes ≥ 10°. The values pass through the URL so the page stays shareable.

No JS? Fill the form by hand. The geolocation button needs JavaScript.